timestamp,wind_dir_avg,wind_spd_avg,wind_spd_max_dir,wind_spd_gust,battery_voltage,lat,long
2022-03-03 00:04:01+00:00,182.0,11.23,169.0,13.54,12.41,47.59359,-54.27349
2022-03-03 00:14:00+00:00,179.0,11.02,187.0,13.12,12.41,47.59359,-54.27349
2022-03-03 00:24:00+00:00,173.0,11.18,170.0,12.86,12.41,47.59359,-54.27349
2022-03-03 00:34:00+00:00,180.0,10.89,183.0,12.41,12.41,47.59359,-54.27349
2022-03-03 00:44:00+00:00,180.0,10.63,180.0,12.28,12.41,47.59359,-54.27349
2022-03-03 00:54:00+00:00,173.0,12.47,173.0,14.47,12.41,47.59359,-54.27349
2022-03-03 01:04:00+00:00,175.0,11.61,179.0,15.11,12.41,47.59359,-54.27349
2022-03-03 01:14:01+00:00,181.0,11.82,178.0,13.54,12.41,47.59359,-54.27349
2022-03-03 01:24:01+00:00,183.0,13.24,186.0,16.11,12.41,47.59359,-54.27349
2022-03-03 01:34:01+00:00,175.0,10.42,171.0,13.32,12.41,47.59359,-54.27349
2022-03-03 01:44:01+00:00,180.0,9.19,191.0,11.16,12.41,47.59359,-54.27349
2022-03-03 01:54:01+00:00,182.0,9.35,188.0,11.56,12.41,47.59359,-54.27349
2022-03-03 02:04:01+00:00,182.0,11.85,188.0,13.72,12.41,47.59359,-54.27349
2022-03-03 02:14:00+00:00,184.0,8.72,191.0,11.23,12.33,47.59359,-54.27349
2022-03-03 02:24:00+00:00,188.0,8.76,191.0,10.39,12.33,47.59359,-54.27349
2022-03-03 02:34:00+00:00,186.0,10.19,186.0,12.99,12.33,47.59359,-54.27349
2022-03-03 02:44:00+00:00,174.0,8.55,180.0,11.63,12.33,47.59359,-54.27349
2022-03-03 02:54:00+00:00,178.0,12.42,178.0,15.22,12.33,47.59359,-54.27349
2022-03-03 03:04:00+00:00,184.0,13.23,178.0,15.76,12.33,47.59359,-54.27349
2022-03-03 03:14:01+00:00,175.0,14.34,182.0,17.09,12.33,47.59359,-54.27349
2022-03-03 03:24:01+00:00,175.0,13.83,183.0,15.92,12.33,47.59359,-54.27349
2022-03-03 03:34:01+00:00,177.0,15.89,186.0,18.13,12.33,47.59359,-54.27349
2022-03-03 03:44:01+00:00,181.0,14.58,185.0,17.34,12.33,47.59359,-54.27349
2022-03-03 03:54:01+00:00,175.0,14.4,170.0,15.78,12.33,47.59359,-54.27349
2022-03-03 04:04:01+00:00,179.0,14.51,193.0,19.0,12.33,47.59359,-54.27349
2022-03-03 04:14:01+00:00,176.0,14.15,176.0,16.36,12.33,47.59359,-54.27349
2022-03-03 04:24:01+00:00,194.0,16.74,204.0,20.19,12.33,47.59359,-54.27349
2022-03-03 04:34:01+00:00,195.0,17.12,207.0,21.21,12.33,47.59359,-54.27349
2022-03-03 04:44:01+00:00,199.0,15.1,204.0,18.71,12.33,47.59359,-54.27349
2022-03-03 04:54:01+00:00,203.0,16.8,212.0,18.96,12.33,47.59359,-54.27349
2022-03-03 05:04:01+00:00,203.0,17.11,207.0,19.22,12.33,47.59359,-54.27349
2022-03-03 05:14:01+00:00,205.0,15.86,205.0,18.36,12.25,47.59359,-54.27349
2022-03-03 05:24:01+00:00,209.0,15.92,206.0,19.3,12.25,47.59359,-54.27349
2022-03-03 05:34:01+00:00,213.0,14.57,208.0,16.48,12.25,47.59359,-54.27349
2022-03-03 05:44:01+00:00,217.0,12.45,213.0,15.3,12.25,47.59359,-54.27349
2022-03-03 05:54:01+00:00,216.0,12.53,209.0,14.5,12.25,47.59359,-54.27349
2022-03-03 06:04:01+00:00,218.0,11.54,215.0,13.6,12.25,47.59359,-54.27349
2022-03-03 06:14:00+00:00,222.0,10.85,222.0,13.61,12.25,47.59359,-54.27349
2022-03-03 06:24:00+00:00,221.0,11.76,220.0,12.93,12.25,47.59359,-54.27349
2022-03-03 06:34:00+00:00,228.0,10.1,240.0,12.74,12.25,47.59359,-54.27349
2022-03-03 06:44:00+00:00,228.0,7.98,227.0,9.52,12.25,47.59359,-54.27349
2022-03-03 06:54:00+00:00,232.0,6.78,238.0,8.35,12.25,47.59359,-54.27349
2022-03-03 07:04:00+00:00,241.0,6.45,241.0,7.38,12.25,47.59359,-54.27349
2022-03-03 07:14:01+00:00,245.0,7.15,254.0,9.08,12.25,47.59359,-54.27349
2022-03-03 07:24:01+00:00,249.0,7.74,253.0,9.95,12.25,47.59359,-54.27349
2022-03-03 07:34:01+00:00,251.0,9.35,254.0,10.34,12.25,47.59359,-54.27349
2022-03-03 07:44:01+00:00,256.0,8.65,262.0,10.36,12.25,47.59359,-54.27349
2022-03-03 07:54:01+00:00,258.0,9.23,259.0,10.67,12.25,47.59359,-54.27349
2022-03-03 08:04:01+00:00,260.0,8.72,264.0,9.64,12.25,47.59359,-54.27349
2022-03-03 08:14:00+00:00,253.0,7.89,256.0,9.64,12.17,47.59359,-54.27349
2022-03-03 08:24:00+00:00,257.0,8.25,262.0,11.87,12.17,47.59359,-54.27349
2022-03-03 08:34:00+00:00,262.0,8.6,267.0,11.7,12.17,47.59359,-54.27349
2022-03-03 08:44:00+00:00,249.0,7.71,253.0,11.51,12.17,47.59359,-54.27349
2022-03-03 08:54:00+00:00,246.0,7.96,250.0,11.92,12.17,47.59359,-54.27349
2022-03-03 09:04:00+00:00,252.0,8.72,260.0,10.57,12.17,47.59359,-54.27349
2022-03-03 09:14:01+00:00,255.0,8.09,259.0,11.06,12.17,47.59359,-54.27349
2022-03-03 09:24:01+00:00,274.0,7.33,268.0,10.74,12.17,47.59359,-54.27349
2022-03-03 09:34:01+00:00,255.0,9.27,257.0,11.11,12.17,47.59359,-54.27349
2022-03-03 09:44:01+00:00,252.0,7.87,258.0,9.77,12.17,47.59359,-54.27349
2022-03-03 09:54:01+00:00,248.0,8.99,253.0,11.34,12.17,47.59359,-54.27349
2022-03-03 10:04:01+00:00,249.0,10.52,246.0,11.37,12.17,47.59359,-54.27349
2022-03-03 10:14:01+00:00,247.0,11.0,248.0,11.62,12.17,47.59359,-54.27349
2022-03-03 10:24:01+00:00,253.0,10.56,252.0,11.53,12.17,47.59359,-54.27349
2022-03-03 10:34:01+00:00,248.0,10.48,250.0,11.38,12.17,47.59359,-54.27349
2022-03-03 10:44:01+00:00,276.0,7.74,275.0,9.3,12.17,47.59359,-54.27349
2022-03-03 10:54:01+00:00,301.0,10.77,301.0,12.13,12.17,47.59359,-54.27349
2022-03-03 11:04:01+00:00,305.0,10.16,305.0,11.94,12.17,47.59359,-54.27349
2022-03-03 11:14:00+00:00,295.0,8.73,293.0,10.16,12.25,47.59359,-54.27349
2022-03-03 11:24:00+00:00,291.0,9.06,290.0,10.97,12.25,47.59359,-54.27349
2022-03-03 11:34:00+00:00,296.0,8.95,298.0,10.28,12.25,47.59359,-54.27349
2022-03-03 11:44:00+00:00,292.0,9.23,287.0,11.45,12.25,47.59359,-54.27349
2022-03-03 11:54:00+00:00,302.0,6.85,299.0,8.53,12.25,47.59359,-54.27349
2022-03-03 12:04:00+00:00,285.0,6.46,283.0,7.9,12.25,47.59359,-54.27349
2022-03-03 12:14:00+00:00,302.0,3.85,312.0,6.26,14.4,47.59359,-54.27349
2022-03-03 12:24:00+00:00,283.0,4.96,285.0,5.46,14.4,47.59359,-54.27349
2022-03-03 12:34:00+00:00,290.0,6.96,288.0,8.45,14.4,47.59359,-54.27349
2022-03-03 12:44:00+00:00,298.0,8.01,301.0,9.16,14.4,47.59359,-54.27349
2022-03-03 12:54:00+00:00,300.0,7.64,305.0,8.9,14.4,47.59359,-54.27349
2022-03-03 13:04:00+00:00,301.0,5.79,299.0,6.69,14.4,47.59359,-54.27349
2022-03-03 13:14:01+00:00,282.0,4.65,280.0,5.85,13.84,47.59359,-54.27349
2022-03-03 13:24:01+00:00,290.0,5.21,298.0,6.21,13.84,47.59359,-54.27349
2022-03-03 13:34:01+00:00,276.0,4.5,279.0,5.27,13.84,47.59359,-54.27349
2022-03-03 13:44:01+00:00,273.0,5.94,273.0,7.28,13.84,47.59359,-54.27349
2022-03-03 13:54:01+00:00,259.0,8.49,268.0,13.02,13.84,47.59359,-54.27349
2022-03-03 14:04:01+00:00,276.0,7.95,277.0,8.42,13.84,47.59359,-54.27349
2022-03-03 14:14:00+00:00,260.0,7.77,257.0,8.47,14.16,47.59359,-54.27349
2022-03-03 14:24:00+00:00,278.0,7.45,284.0,9.69,14.16,47.59359,-54.27349
2022-03-03 14:34:00+00:00,266.0,12.39,267.0,14.78,14.16,47.59359,-54.27349
2022-03-03 14:44:00+00:00,258.0,6.62,259.0,7.9,14.16,47.59359,-54.27349
2022-03-03 14:54:00+00:00,277.0,8.82,272.0,12.97,14.16,47.59359,-54.27349
2022-03-03 15:04:00+00:00,269.0,7.22,266.0,13.0,14.16,47.59359,-54.27349
2022-03-03 15:14:00+00:00,268.0,8.03,267.0,12.61,13.92,47.59359,-54.27349
2022-03-03 15:24:00+00:00,277.0,5.39,280.0,7.33,13.92,47.59359,-54.27349
2022-03-03 15:34:00+00:00,270.0,8.13,272.0,12.0,13.92,47.59359,-54.27349
2022-03-03 15:44:00+00:00,281.0,5.94,277.0,7.48,13.92,47.59359,-54.27349
2022-03-03 15:54:00+00:00,272.0,11.14,276.0,14.14,13.92,47.59359,-54.27349
2022-03-03 16:04:00+00:00,277.0,7.93,274.0,12.47,13.92,47.59359,-54.27349
2022-03-03 16:14:00+00:00,278.0,12.11,278.0,13.66,13.68,47.59359,-54.27349
2022-03-03 16:24:00+00:00,274.0,10.39,272.0,13.55,13.68,47.59359,-54.27349
2022-03-03 16:34:00+00:00,269.0,8.2,271.0,8.97,13.68,47.59359,-54.27349
2022-03-03 16:44:00+00:00,274.0,11.13,278.0,13.8,13.68,47.59359,-54.27349
2022-03-03 16:54:00+00:00,276.0,7.43,279.0,8.41,13.68,47.59359,-54.27349
2022-03-03 17:04:00+00:00,261.0,6.71,270.0,7.55,13.68,47.59359,-54.27349
2022-03-03 17:14:01+00:00,244.0,5.13,250.0,5.88,13.68,47.59359,-54.27349
2022-03-03 17:24:01+00:00,247.0,6.7,245.0,7.85,13.68,47.59359,-54.27349
2022-03-03 17:34:01+00:00,250.0,5.45,249.0,6.09,13.68,47.59359,-54.27349
2022-03-03 17:44:01+00:00,254.0,6.84,260.0,7.79,13.68,47.59359,-54.27349
2022-03-03 17:54:01+00:00,254.0,7.28,252.0,8.2,13.68,47.59359,-54.27349
2022-03-03 18:04:01+00:00,254.0,7.77,255.0,8.68,13.68,47.59359,-54.27349
2022-03-03 18:14:00+00:00,256.0,8.54,253.0,9.28,13.68,47.59359,-54.27349
2022-03-03 18:24:00+00:00,255.0,8.11,254.0,9.17,13.68,47.59359,-54.27349
2022-03-03 18:34:00+00:00,252.0,7.95,250.0,9.17,13.68,47.59359,-54.27349
2022-03-03 18:44:00+00:00,247.0,7.78,252.0,8.7,13.68,47.59359,-54.27349
2022-03-03 18:54:00+00:00,256.0,8.48,258.0,9.33,13.68,47.59359,-54.27349
2022-03-03 19:04:00+00:00,267.0,7.87,263.0,9.48,13.68,47.59359,-54.27349
2022-03-03 19:14:01+00:00,258.0,8.17,263.0,9.11,13.84,47.59359,-54.27349
2022-03-03 19:24:01+00:00,268.0,6.62,268.0,8.01,13.84,47.59359,-54.27349
2022-03-03 19:34:01+00:00,279.0,5.95,276.0,6.82,13.84,47.59359,-54.27349
2022-03-03 19:44:01+00:00,265.0,6.39,278.0,8.47,13.84,47.59359,-54.27349
2022-03-03 19:54:01+00:00,273.0,6.77,276.0,8.0,13.84,47.59359,-54.27349
2022-03-03 20:04:01+00:00,256.0,6.97,262.0,8.87,13.84,47.59359,-54.27349
2022-03-03 20:14:00+00:00,258.0,7.04,258.0,8.65,13.37,47.59359,-54.27349
2022-03-03 20:24:00+00:00,255.0,5.63,251.0,6.88,13.37,47.59359,-54.27349
2022-03-03 20:34:00+00:00,247.0,5.34,249.0,6.68,13.37,47.59359,-54.27349
2022-03-03 20:44:00+00:00,253.0,5.8,253.0,6.96,13.37,47.59359,-54.27349
2022-03-03 20:54:00+00:00,245.0,5.59,244.0,6.3,13.37,47.59359,-54.27349
2022-03-03 21:04:00+00:00,247.0,4.97,248.0,5.3,13.37,47.59359,-54.27349
2022-03-03 21:14:01+00:00,251.0,5.57,248.0,6.3,12.73,47.59359,-54.27349
2022-03-03 21:24:01+00:00,259.0,5.01,262.0,5.61,12.73,47.59359,-54.27349
2022-03-03 21:34:01+00:00,259.0,5.05,259.0,5.45,12.73,47.59359,-54.27349
2022-03-03 21:44:01+00:00,232.0,5.36,236.0,6.05,12.73,47.59359,-54.27349
2022-03-03 21:54:01+00:00,235.0,5.05,236.0,5.49,12.73,47.59359,-54.27349
2022-03-03 22:04:01+00:00,239.0,4.63,240.0,5.26,12.73,47.59359,-54.27349
2022-03-03 22:14:01+00:00,240.0,4.56,236.0,5.47,12.49,47.59359,-54.27349
2022-03-03 22:24:01+00:00,256.0,4.31,256.0,5.16,12.49,47.59359,-54.27349
2022-03-03 22:34:01+00:00,260.0,3.31,260.0,3.93,12.49,47.59359,-54.27349
2022-03-03 22:44:01+00:00,269.0,2.86,269.0,3.37,12.49,47.59359,-54.27349
2022-03-03 22:54:01+00:00,255.0,2.94,259.0,3.28,12.49,47.59359,-54.27349
2022-03-03 23:04:01+00:00,259.0,1.36,261.0,3.06,12.49,47.59359,-54.27349
2022-03-03 23:14:00+00:00,220.0,2.51,226.0,3.4,12.41,47.59359,-54.27349
2022-03-03 23:24:00+00:00,15.0,0.11,0.0,0.3,12.41,47.59359,-54.27349
2022-03-03 23:34:00+00:00,318.0,1.43,293.0,3.86,12.41,47.59359,-54.27349
2022-03-03 23:44:00+00:00,338.0,0.73,315.0,1.08,12.41,47.59359,-54.27349
2022-03-03 23:54:00+00:00,294.0,5.39,294.0,6.06,12.41,47.59359,-54.27349
